Wind_Speed
18 19 21 22 24 27 29 31 33 35 36 37 38 38 37 37 36 35 34 31 30 29 30 32 34 35 36 36 36 36 35 34 34 34 35 35 36 36 37 37 38 38 39 40
13 15 16 18 21 23 26 29 31 33 33 34 35 35 34 34 34 33 31 30 30 31 33 35 35 35 35 35 35 34 33 32 34 35 35 36 36 37 38 39 39 39 39 39
10 11 12 14 17 21 24 26 29 30 31 31 32 32 32 33 33 32 32 32 33 35 36 36 34 32 31 32 33 32 32 33 34 34 34 34 35 36 37 38 39 40 40 40
10 11 13 14 16 19 22 24 26 27 27 27 29 30 31 32 33 34 34 34 35 35 34 32 30 28 29 30 31 31 32 32 31 31 31 31 32 33 35 37 38 39 40 41
9 11 14 15 16 18 20 22 23 24 24 25 27 29 29 30 31 32 32 31 30 28 27 25 24 25 27 28 29 30 30 29 28 26 26 27 29 31 33 35 37 38 39 40
8 9 10 12 13 14 16 17 18 19 19 20 22 23 23 23 23 23 23 22 22 22 22 22 23 24 26 27 28 28 27 26 24 24 24 26 28 30 32 34 35 36 38 38
4 6 8 9 10 11 12 13 14 14 14 16 17 18 17 18 20 20 19 20 21 22 22 22 23 23 24 25 26 25 25 25 25 26 27 29 30 32 32 34 35 36 36 37
4 5 7 9 11 12 12 13 13 14 14 14 16 17 16 18 18 19 20 21 22 22 22 22 23 23 24 25 25 26 27 29 30 31 32 33 34 35 35 35 36 37 37 37
5 5 8 10 11 13 13 13 14 14 14 14 15 16 18 18 18 19 20 20 21 21 21 22 24 25 27 28 29 30 31 33 34 36 36 37 37 38 37 37 37 38 38 38
7 7 7 10 11 11 12 13 14 15 16 16 16 18 20 20 21 22 22 22 23 24 25 26 28 29 31 33 34 35 36 37 38 39 39 39 39 39 39 38 38 39 39 39
8 9 9 10 9 11 12 13 14 16 18 20 20 20 20 22 24 26 27 28 28 29 30 31 33 34 36 38 39 40 40 40 40 41 40 40 41 41 40 40 39 39 39 39
9 11 12 13 13 13 14 16 18 20 21 23 25 27 25 26 28 30 31 32 33 34 35 36 38 40 42 43 44 45 45 45 45 45 44 43 42 42 41 40 39 39 39 38
11 12 14 15 17 17 18 19 22 24 25 27 28 32 32 33 34 35 36 37 38 39 41 42 44 46 48 49 50 51 51 50 50 49 47 45 44 43 42 41 40 39 39 38
13 13 15 17 19 20 21 22 25 27 30 31 31 34 36 37 38 39 41 42 43 45 47 49 51 53 54 55 55 56 56 55 54 53 51 49 47 45 44 42 41 40 39 38
14 15 17 18 20 21 21 22 25 28 31 33 34 35 37 38 40 42 44 46 48 50 52 55 57 59 60 60 60 61 60 59 58 57 56 54 52 49 47 45 42 41 39 37
18 19 19 20 22 23 25 26 28 30 32 34 35 37 38 40 42 45 48 50 52 55 57 60 62 63 64 64 65 65 64 63 62 61 61 60 57 54 50 47 44 42 40 37
21 23 24 23 24 27 28 29 31 33 34 36 39 41 43 44 46 49 52 55 58 61 63 64 66 66 68 69 70 70 69 69 69 68 67 65 62 59 55 50 47 43 40 36
24 26 27 28 29 30 32 33 35 37 40 41 43 45 46 48 50 53 58 61 63 66 68 70 72 73 75 76 77 76 76 76 75 74 72 70 67 63 59 53 48 44 40 36
27 28 30 31 33 35 36 38 40 42 43 45 46 48 52 55 57 60 65 68 71 73 75 77 79 80 81 81 82 82 81 79 78 76 73 71 68 64 60 55 49 45 41 37
27 29 31 33 35 37 39 40 41 43 45 48 51 55 59 62 66 67 71 74 77 79 81 82 83 83 83 82 81 79 76 73 70 66 63 60 59 58 55 53 50 46 42 38
27 29 31 32 34 36 38 39 42 46 50 54 58 62 66 70 74 77 79 81 82 81 79 78 76 74 72 70 67 64 60 56 53 50 48 46 46 48 49 49 49 46 43 39
29 30 30 31 33 36 39 43 47 52 56 61 65 70 74 78 81 81 80 77 73 68 65 62 60 57 54 52 50 46 43 40 39 38 38 39 40 41 42 45 48 47 43 40
30 31 31 33 36 41 46 51 55 60 64 69 74 78 82 83 82 77 70 63 57 53 51 48 46 43 41 41 40 38 37 37 37 36 36 37 38 37 37 42 46 47 44 40
29 31 34 38 42 46 52 56 61 66 70 75 79 81 81 77 70 61 55 50 46 44 43 42 42 41 40 40 41 41 40 40 40 38 36 36 34 33 34 41 46 46 44 41
33 36 40 44 48 52 56 61 66 71 75 78 79 76 70 62 54 49 45 43 42 43 43 43 43 43 42 42 42 43 43 43 41 38 36 35 33 31 32 39 45 46 43 41
36 41 46 49 53 58 62 66 71 75 77 77 73 65 55 49 46 43 43 43 43 44 45 46 46 46 47 47 46 45 44 43 41 38 35 32 30 29 30 36 41 44 42 40
Wind_Direction
219 221 224 228 231 235 240 245 248 252 255 258 260 262 264 265 266 267 269 272 276 280 285 291 294 296 297 297 297 296 297 300 302 304 305 305 303 301 298 296 293 290 287 284
218 221 224 229 231 236 241 245 248 251 252 254 256 258 261 263 265 268 271 274 277 281 285 289 292 293 294 295 296 297 299 303 305 306 307 306 305 303 301 299 296 292 288 285
235 236 237 239 241 242 245 247 249 251 252 253 254 255 259 263 267 270 273 275 278 282 286 288 288 288 289 291 295 298 302 305 306 307 306 307 306 306 304 302 299 295 290 286
255 256 254 253 253 254 253 255 256 257 258 257 259 259 258 262 267 271 273 276 279 281 284 284 283 282 286 290 293 297 302 304 305 307 308 310 311 311 310 308 304 299 294 289
275 267 262 258 257 258 260 263 265 266 266 265 263 264 265 265 266 269 272 275 277 277 277 276 276 280 286 289 292 295 298 299 302 306 310 314 316 316 316 314 311 306 300 295
274 272 271 270 265 265 269 272 273 274 273 270 270 271 271 271 272 273 274 274 272 270 271 273 277 281 284 285 287 290 291 294 300 305 312 316 318 319 320 320 317 312 306 300
295 285 279 277 276 275 278 281 283 283 281 277 278 280 280 275 273 271 270 270 270 271 273 275 277 278 279 280 281 283 287 293 301 307 312 315 316 318 320 321 321 318 312 306
316 300 288 276 275 276 280 285 288 289 288 284 285 285 284 278 276 275 274 274 275 276 276 274 271 272 274 277 280 285 293 300 306 310 313 315 316 317 318 320 321 320 317 312
322 300 292 286 281 280 280 282 288 289 289 284 283 284 281 283 283 283 282 282 281 278 276 274 274 276 280 284 289 294 299 303 306 309 311 312 313 314 316 317 319 320 319 317
338 323 300 299 295 293 290 288 287 288 291 289 284 280 280 284 288 290 290 290 288 285 283 281 283 286 289 293 296 299 302 304 305 306 307 308 309 310 313 315 316 318 319 318
340 335 329 323 315 306 299 294 293 293 294 296 294 288 290 291 293 292 291 290 288 287 287 287 290 292 294 296 299 300 301 302 303 303 304 305 306 308 310 311 314 315 317 318
337 331 326 323 319 311 306 303 301 298 299 299 300 298 297 295 292 291 290 289 288 287 288 290 292 294 295 297 298 299 300 301 301 302 303 303 304 305 307 308 310 312 315 317
338 328 320 315 313 311 307 305 302 300 300 299 300 299 300 298 296 294 292 290 288 288 289 290 292 293 294 294 295 296 297 298 298 299 301 301 302 302 303 305 307 309 311 314
340 334 323 316 311 310 307 303 300 298 298 297 297 296 296 296 295 293 291 290 289 288 289 289 290 290 290 291 291 292 293 294 295 296 297 298 298 299 300 302 303 304 307 310
331 328 322 316 311 308 304 298 294 293 294 295 295 294 293 292 292 291 290 289 288 287 286 287 287 287 287 287 288 289 289 290 291 293 293 294 295 295 295 296 297 299 302 305
323 320 318 313 309 306 303 301 299 296 295 295 295 295 295 293 292 290 289 288 287 287 286 285 285 285 284 284 284 284 284 285 286 288 288 289 289 290 290 290 290 292 295 297
319 317 314 312 308 305 305 304 301 299 299 299 299 298 297 296 294 292 290 289 288 288 286 284 283 283 282 281 281 281 282 283 284 285 285 284 284 284 283 282 282 283 286 288
318 317 316 314 312 309 309 306 305 305 304 303 302 301 300 297 295 293 291 291 290 289 287 285 283 282 282 282 282 282 282 282 282 282 281 281 280 279 277 275 274 274 275 278
319 317 316 316 314 313 312 312 312 311 310 309 308 306 303 301 299 295 292 292 291 289 288 287 286 285 285 284 283 283 283 282 281 281 280 279 277 275 272 268 264 264 265 267
318 317 316 316 315 315 315 317 317 315 312 312 309 307 304 302 300 297 295 293 291 290 289 288 288 287 287 286 285 285 284 283 283 282 281 278 275 270 266 260 254 253 254 256
317 317 317 317 317 317 320 321 319 314 314 312 310 308 306 304 302 300 298 296 295 295 294 293 292 291 290 289 288 287 285 284 282 280 278 277 274 269 260 250 242 242 243 246
321 321 322 323 324 323 324 322 319 317 316 314 311 309 307 306 304 302 302 301 301 300 298 297 296 296 295 294 292 290 287 283 280 279 278 278 276 272 260 243 232 232 235 238
327 327 329 330 328 327 325 323 322 320 318 316 314 312 309 308 307 308 309 308 307 305 304 302 301 300 298 295 293 292 289 285 284 284 283 283 279 273 256 236 225 224 228 230
330 330 331 330 330 328 325 324 322 320 318 316 314 312 311 311 313 314 313 312 311 310 308 306 303 301 298 294 291 290 287 285 285 284 283 283 279 270 253 232 220 219 220 222
331 332 331 331 330 328 326 324 322 320 318 316 315 315 315 315 317 317 317 316 314 312 310 307 304 302 299 296 292 289 286 284 283 282 282 280 274 266 251 231 219 213 212 214
331 331 330 330 329 328 327 325 323 321 320 318 317 318 318 318 319 319 319 318 316 315 312 309 305 302 299 296 293 290 286 283 281 280 279 274 266 258 243 226 214 207 204 202
Height
5857 5860 5861 5863 5865 5867 5868 5870 5871 5872 5873 5873 5873 5874 5874 5875 5875 5874 5874 5873 5873 5872 5870 5869 5866 5864 5862 5860 5857 5855 5853 5850 5848 5845 5842 5840 5837 5835 5832 5830 5828 5825 5823 5821
5857 5858 5859 5860 5861 5862 5864 5865 5866 5866 5867 5867 5867 5867 5867 5867 5867 5867 5868 5867 5866 5865 5864 5863 5860 5858 5856 5853 5851 5848 5846 5844 5841 5838 5835 5833 5830 5827 5824 5821 5818 5816 5814 5811
5856 5858 5858 5859 5859 5860 5860 5861 5861 5862 5862 5862 5863 5863 5862 5862 5861 5861 5861 5861 5860 5859 5858 5856 5855 5852 5850 5847 5845 5842 5840 5837 5834 5832 5829 5826 5823 5819 5816 5812 5809 5806 5803 5801
5856 5857 5857 5857 5857 5857 5857 5857 5857 5857 5858 5858 5859 5858 5859 5857 5857 5856 5855 5855 5855 5854 5852 5851 5849 5847 5844 5842 5839 5836 5834 5831 5828 5826 5823 5819 5816 5812 5808 5804 5800 5796 5792 5790
5855 5855 5855 5855 5855 5855 5854 5854 5853 5853 5853 5853 5852 5853 5853 5853 5852 5852 5851 5850 5849 5848 5847 5845 5842 5841 5839 5836 5833 5831 5828 5826 5823 5820 5817 5814 5810 5806 5802 5797 5792 5787 5783 5779
5853 5853 5853 5853 5852 5852 5851 5851 5850 5849 5849 5848 5847 5848 5848 5847 5847 5847 5846 5845 5844 5843 5841 5839 5837 5835 5833 5830 5828 5825 5823 5820 5818 5815 5811 5807 5804 5800 5795 5790 5785 5779 5774 5769
5852 5852 5851 5851 5850 5850 5849 5849 5848 5846 5845 5845 5844 5844 5845 5843 5842 5842 5841 5840 5839 5837 5836 5834 5832 5829 5827 5824 5822 5819 5817 5814 5811 5807 5804 5800 5796 5792 5788 5783 5778 5772 5767 5762
5852 5851 5850 5849 5848 5848 5847 5847 5846 5845 5843 5842 5841 5841 5841 5839 5838 5837 5836 5835 5833 5831 5830 5827 5825 5822 5820 5817 5815 5812 5809 5805 5801 5798 5795 5791 5788 5784 5779 5775 5770 5765 5759 5754
5851 5850 5849 5847 5846 5845 5844 5844 5843 5842 5840 5839 5838 5837 5836 5834 5833 5832 5830 5828 5827 5825 5823 5820 5817 5814 5811 5809 5805 5802 5799 5795 5792 5788 5785 5782 5779 5775 5771 5767 5762 5757 5751 5745
5849 5848 5847 5845 5844 5843 5842 5841 5840 5838 5836 5835 5835 5832 5831 5830 5828 5826 5824 5822 5820 5817 5814 5811 5808 5805 5801 5798 5795 5792 5788 5785 5782 5779 5776 5773 5769 5766 5762 5758 5754 5749 5743 5737
5847 5846 5846 5844 5842 5840 5839 5838 5836 5835 5833 5831 5829 5829 5827 5825 5822 5820 5817 5814 5811 5808 5804 5801 5797 5794 5791 5788 5784 5781 5778 5775 5772 5769 5766 5763 5759 5756 5753 5750 5746 5741 5735 5730
5846 5845 5843 5842 5840 5838 5836 5835 5833 5831 5829 5826 5824 5824 5820 5818 5815 5812 5809 5805 5801 5798 5794 5790 5787 5783 5780 5777 5774 5770 5767 5765 5762 5759 5756 5753 5750 5747 5744 5741 5737 5733 5728 5722
5845 5844 5842 5840 5839 5837 5834 5831 5828 5826 5823 5821 5818 5817 5812 5808 5805 5802 5799 5795 5791 5787 5784 5780 5776 5772 5769 5766 5762 5759 5756 5753 5750 5748 5745 5742 5739 5736 5734 5731 5728 5724 5720 5715
5843 5842 5840 5838 5835 5832 5829 5827 5823 5820 5817 5814 5812 5808 5803 5799 5796 5792 5788 5784 5780 5776 5772 5768 5764 5760 5756 5753 5749 5746 5743 5740 5737 5735 5733 5731 5728 5726 5724 5721 5719 5715 5712 5708
5842 5840 5836 5833 5830 5827 5825 5822 5819 5815 5811 5807 5804 5800 5796 5791 5787 5782 5777 5773 5768 5764 5759 5755 5750 5746 5742 5738 5735 5731 5728 5725 5722 5720 5718 5717 5716 5714 5713 5711 5709 5706 5704 5700
5838 5836 5833 5830 5826 5822 5819 5816 5813 5809 5805 5801 5796 5792 5787 5782 5777 5772 5766 5761 5755 5750 5745 5740 5735 5730 5725 5721 5718 5715 5712 5709 5706 5704 5702 5701 5700 5700 5700 5699 5698 5696 5695 5692
5834 5831 5828 5825 5821 5817 5814 5811 5806 5802 5797 5793 5787 5783 5776 5771 5765 5759 5752 5746 5740 5734 5728 5723 5717 5712 5707 5703 5698 5695 5692 5690 5687 5685 5684 5683 5683 5683 5684 5685 5685 5685 5684 5683
5830 5826 5822 5819 5816 5811 5810 5803 5798 5793 5788 5782 5777 5770 5764 5758 5753 5746 5737 5730 5723 5716 5709 5703 5697 5691 5686 5681 5676 5672 5670 5667 5665 5663 5662 5661 5662 5664 5666 5668 5670 5672 5672 5673
5824 5821 5816 5812 5808 5804 5799 5794 5788 5783 5777 5771 5764 5758 5751 5744 5738 5732 5721 5712 5703 5695 5687 5679 5672 5666 5660 5655 5650 5647 5645 5641 5639 5638 5637 5637 5638 5641 5645 5649 5653 5656 5659 5660
5820 5816 5811 5806 5801 5796 5792 5786 5779 5774 5766 5760 5752 5745 5737 5728 5720 5714 5702 5691 5681 5671 5662 5653 5645 5639 5633 5627 5621 5619 5618 5615 5613 5612 5612 5612 5613 5616 5622 5628 5634 5639 5644 5647
5816 5811 5806 5801 5795 5790 5784 5778 5772 5765 5758 5749 5738 5729 5719 5708 5697 5687 5675 5664 5652 5643 5634 5625 5618 5612 5607 5601 5597 5595 5594 5592 5591 5591 5591 5591 5592 5594 5599 5605 5614 5621 5627 5633
5810 5806 5800 5795 5789 5785 5777 5770 5763 5755 5744 5733 5722 5710 5698 5686 5674 5661 5649 5638 5627 5617 5609 5601 5594 5590 5585 5580 5576 5575 5574 5573 5573 5574 5573 5573 5574 5575 5578 5585 5594 5603 5611 5619
5804 5799 5794 5789 5784 5775 5767 5759 5749 5739 5728 5716 5703 5690 5675 5662 5649 5636 5625 5616 5607 5599 5592 5586 5580 5576 5572 5568 5564 5562 5561 5559 5559 5559 5558 5557 5557 5557 5560 5567 5576 5587 5596 5605
5799 5793 5788 5782 5775 5767 5757 5747 5736 5724 5712 5699 5683 5668 5652 5638 5627 5617 5608 5600 5593 5586 5580 5574 5568 5564 5560 5556 5552 5549 5547 5546 5545 5545 5544 5543 5542 5543 5545 5551 5560 5571 5581 5592
5793 5787 5781 5773 5766 5757 5747 5735 5723 5710 5695 5680 5664 5648 5633 5620 5612 5603 5596 5589 5583 5576 5569 5563 5556 5551 5547 5542 5538 5535 5532 5531 5530 5530 5530 5529 5529 5529 5531 5537 5546 5556 5569 5581
5787 5780 5773 5765 5755 5745 5734 5722 5708 5693 5678 5662 5646 5633 5622 5610 5601 5594 5587 5580 5572 5565 5558 5550 5543 5537 5532 5527 5523 5519 5516 5514 5514 5515 5515 5515 5516 5518 5520 5525 5535 5546 5558 5570